Погода в Кимхэ

Южная Корея     35°13′46″N   128°53′38″E
темп.,
°C
ветер,
м/с
пор.,
м/с
влажн.,
%
обл.,
%
осадки,
мм/ч
давл.,
гПа
погр.,
м
9 мая, вс
вс900:00+13з26780 0.0 1005283
03:00+11сз22800 0.0 100761
06:00+10сз22770 0.0 100862
09:00+17зсз26357 0.0 1010842
12:00+21з4826100 0.0 10102060
15:00+23з38220 0.0 10092386
18:00+21з27330 0.0 1009879
21:00+15сз11440 0.0 101220
10 мая, пн
пн1000:00+14ссз114167 0.0 101218
03:00+13ссз11405 0.0 101213
06:00+14сз1135100 0.0 101317
09:00+17с1134100 0.0 1013131
12:00+16всв1244100 0.0 1014137
15:00+17всв2336100 0.0 1013811
18:00+16всв355024 0.0 1014643
21:00+12всв24735 0.0 1015199
11 мая, вт
вт1100:00+12всв227798 0.0 101680
03:00+11ссв2286100 0.0 101580
06:00+11св1289100 0.0 101686
09:00+16всв2467100 0.0 1016598
12:00+19всв3547100 0.0 1015951
15:00+19всв4834100 0.0 1014798
18:00+17св41147100 0.0 1015637
21:00+14св31160100 0.0 1015512
12 мая, ср
ср1200:00+13св3870100 0.0 1015385
03:00+13св3675100 0.0 1014241
06:00+13св3776100 0.0 1014267
09:00+17св3763100 0.0 1014578
12:00+20в4648100 0.0 1013860
15:00+18в4769100 0.0 1012749
18:00+16всв21085100 0.1 1012660
21:00+16св3787100 0.1 1013561
13 мая, чт
чт1300:00+15св259130 0.0 1012215
03:00+15св3785100 0.1 1010376
06:00+16св3778100 0.0 1011383
09:00+19св3860100 0.0 1011783
12:00+24всв584881 0.0 10101124
15:00+24всв69515 0.0 10101075
18:00+21всв375872 0.0 1010846
21:00+17ссв3674100 0.0 1012314